THOR ABLESTAR DEB, 144

Orbit data source: Space-Track

THOR ABLESTAR DEB, 144 is space debris in LEO originally from a launch on Thu, 29 Jun 1961 UTC launched from the Air Force Eastern Test Range (AFETR). Debris objects in space refer to the collection of defunct objects orbiting the Earth. Examples of debris include non-operational satellites, rocket bodies, and fragments generated from explosions, collisions, or faulty payload assembly.

Loading next visibility...
Identifier
144, 1961-015AE
Orbit
LEO
Country
Flag of USUS
Related business
Manufacturer
Unknown
Mission
Spacecraft
Bus & Motor
Unknown
Mass
Unknown
Launch date (UTC)
1961-06-29 (64 years ago)
Launch vehicle
Unknown
Launch site
Air Force Eastern Test Range (AFETR)
Object type
Payload
Rocket body
Debris
Shape & HBR
Unknown
Radar Cross Section
Small (<0.1 m²)

Expand to show TLE details & history
Last TLE update: 10 hours ago

TLE from 10 hours ago
0 THOR ABLESTAR DEB
1 00144U 61015AE  25245.75282217  .00000609  00000-0  53911-3 0  9991
2 00144  66.5014  19.3216 0043879 193.2504 166.7424 13.91465313244657
Epoch: 2025-09-02T18:04Z
TLE epoch observation values (Epoch: 2025-09-02T18:04:03.835Z)
Latitude
-0.00002°
Longitude
126.16607°
Altitude
956.75 km
Speed
7.358 km/s
True Right ascension
01h 17m 17s
True Declination
0° 00' 00"
Sunlit
Object was in full shadow at epoch
Visualization orbit readout
Latitude
Unknown
Longitude
Unknown
Altitude
Unknown
Speed
Unknown
Apparent Right ascension
Unknown
Apparent Declination
Unknown
Sunlit
N/A
Visualization observer readout
Local Sidereal Time
19:24:09
Azimuth
Unknown
Elevation
Unknown
Doppler factor
Unknown
Orbital elements
Apogee altitude
953.959 km
Perigee altitude
889.896 km
Semi-major axis
7,300.064 km
Eccentricity
0.00439
Inclination
66.5014°
RAAN
19.3216°
Arg. of periapsis
193.2504°
True anomaly
166.8571°
Mean anomaly
166.7424°
Eccentric anomaly
166.79981°
Mean motion
3.47979 °/min
Orbital period
103.45 mins
BSTAR
0.00053911
Loading maneuver chart data...
Computing Atmospheric mass density...

Documentation

Showing up to 5 results
|